Location: Bussy-Saint-Georges
(48.8410°N, 2.7017°E)
Time: 22:20:08
(UTC+00:00)

H-2A R/B - Pass Details

Date: 18 October 2021
Orbit: 732 x 837 km, 98.2° (Epoch: 07 December)

Event Time Altitude Azimuth Distance (km) Brightness Sun altitude
Rises 17:22:24 0° 154° (SSE) 3,323 5.1 -5.5°
Reaches altitude 10° 17:24:44 10° 151° (SSE) 2,408 4.4 -5.9°
Maximum altitude 17:30:01 64° 71° (ENE) 921 2.2 -6.7°
Drops below altitude 10° 17:35:25 10° 351° (N) 2,461 4.7 -7.6°
Sets 17:37:49 0° 349° (N) 3,402 5.4 -8.0°
